Regional Weather Roundup
Issued by NWS

Home | Current Version | Previous Version | Graphics & Text | Print | Product List | Glossary On
Versions: 1 2 3 4 5 6 7 8 9 10 11 12 13 14 15 16 17 18 19 20 21 22 23 24 25 26 27 28 29 30 31 32 33 34 35 36 37 38 39 40 41 42 43 44 45 46 47 48 49 50
000
ASUS43 KLSX 030407
RWRMO

WEATHER SUMMARY FOR MISSOURI
NATIONAL WEATHER SERVICE SPRINGFIELD MO
1100 PM CDT MON MAY 02 2016

NOTE: "FAIR" INDICATES FEW OR NO CLOUDS BELOW 12,000 FEET WITH NO
       SIGNIFICANT WEATHER AND/OR OBSTRUCTIONS TO VISIBILITY.
       CURRENT SKY AND/OR WEATHER CONDITIONS ARE NOT AVAILABLE FOR
       CHILLICOTHE AND FARMINGTON.

MOZ001>031-035>038-043-044-053-054-030500-
...NORTHERN AND WESTERN MISSOURI...

CITY           SKY/WX    TMP DP  RH WIND       PRES   REMARKS
KANSAS CTY INT PTCLDY    49  45  86 SW6       30.07S
KANSAS C DTWN  CLEAR     50  46  86 CALM      30.07S
LEE`S SUMMIT   PTCLDY    47  45  93 W6        30.07S
ST JOSEPH      CLEAR     47  45  93 CALM      30.07R
CHILLICOTHE      N/A     45  44  97 CALM      30.07S
KIRKSVILLE     CLEAR     41  40  96 W3        30.05F FOG

$$
MOZ066>068-077>081-088>096-101>105-030500-
...SOUTHWEST MISSOURI...

CITY           SKY/WX    TMP DP  RH WIND       PRES   REMARKS
SPRINGFIELD    CLOUDY    51  45  79 CALM      30.06S
JOPLIN         CLOUDY    51  48  89 W3        30.09R

$$
MOZ032>034-039>042-045>050-055>058-069>072-030500-
...CENTRAL MISSOURI...

CITY           SKY/WX    TMP DP  RH WIND       PRES   REMARKS
COLUMBIA       FOG       47  47 100 N3        30.05F VSB 1/4
JEFFERSON CITY CLEAR     50  47  89 NW3       30.06S
ROLLA          PTCLDY    47  46  97 W3        30.04S
SEDALIA        CLEAR     50  48  93 CALM      30.07S
WHITEMAN AFB   CLEAR     49  49 100 SW2       30.06R
WARRENSBURG    CLEAR     46  45  93 CALM      30.07S
OSAGE BEACH    CLOUDY    48  39  71 CALM      30.07R

$$
MOZ051-052-059>065-030500-
...EAST CENTRAL MISSOURI...

CITY           SKY/WX    TMP DP  RH WIND       PRES   REMARKS
ST LOUIS INTL  CLOUDY    54  49  83 NW3       30.04S
SPIRIT OF STL  CLOUDY    52  51  97 W3        30.04S
ST CHARLES     CLOUDY    53  50  89 CALM      30.04R

$$
MOZ072>076-082>087-097>100-106>115-030500-
...SOUTH CENTRAL AND SOUTHEAST MISSOURI...

CITY           SKY/WX    TMP DP  RH WIND       PRES   REMARKS
CAPE GIRARDEAU CLOUDY    57  49  74 N8        30.03S
FARMINGTON     CLOUDY    52  47  83 NW5       30.05S
POPLAR BLUFF   CLOUDY    58  47  66 N10       30.03S
WEST PLAINS    CLOUDY    52  45  77 N8        30.06S

$$


USA.gov is the U.S. government's official web portal to all federal, state and local government web resources and services.